Regional Weather Roundup
Issued by NWS

Home | Current Version | Previous Version | Graphics & Text | Print | Product List | Glossary On
Versions: 1 2 3 4 5 6 7 8 9 10 11 12 13 14 15 16 17 18 19 20 21 22 23 24 25 26 27 28 29 30 31 32 33 34 35 36 37 38 39 40 41 42 43 44 45 46 47 48 49 50
000
ASUS43 KDMX 070008
RWRIA

WEATHER ROUNDUP FOR IOWA
NATIONAL WEATHER SERVICE DES MOINES IA
600 PM CST SAT FEB 06 2016

NOTE: "FAIR" INDICATES FEW OR NO CLOUDS BELOW 12,000 FEET WITH NO
SIGNIFICANT WEATHER AND/OR OBSTRUCTIONS TO VISIBILITY.

* - THESE STATIONS ARE NOT NWS STATIONS...THUS NOT UNDER NWS
QUALITY CONTROL.  THEY ALSO DO NOT REPORT WEATHER SUCH
AS PRECIPITATION OR FOG.

IAZ001>003-012>014-020>022-031>034-043>046-070100-
   NORTHWEST IOWA

CITY           SKY/WX    TMP DP  RH WIND       PRES   REMARKS
CARROLL *      CLEAR     34  30  86 SW26      29.97F WCI  21
CHEROKEE *     CLOUDY    35  28  75 S13       29.91F WCI  27
DENISON *      CLEAR     36  28  75 S16       29.96S WCI  26
LE MARS *      CLEAR     34  30  86 S10       29.93R WCI  26
ORANGE CITY *  CLEAR     34  30  86 SW13      29.91R WCI  25
SHELDON *      CLEAR     34  28  80 S15       29.88R WCI  24
SIOUX CITY     CLOUDY    37  27  67 SW9       29.94F WCI  30
6HR MIN TEMP:  31; 6HR MAX TEMP:  40;

SPENCER        CLOUDY    34  26  72 S17       29.89F WCI  23
6HR MIN TEMP:  30; 6HR MAX TEMP:  35;

STORM LAKE *   CLEAR     34  32  93 S22       29.91F WCI  22
$$

IAZ055>058-069>071-079>083-090>094-070100-
   SOUTHWEST IOWA

CITY           SKY/WX    TMP DP  RH WIND       PRES   REMARKS
ATLANTIC *     CLEAR     36  30  80 S10       30.02F WCI  28
AUDUBON *      CLEAR     36  30  80 S16G23    30.01F WCI  26
CLARINDA *     CLEAR     39  32  75 S10       30.10F WCI  32
COUNCIL BLFS * CLEAR     37  30  75 SW17G23   30.01F WCI  28
CRESTON *      CLEAR     36  32  87 S12       30.09F WCI  27
HARLAN  *      CLEAR     36  28  75 S18       30.03F WCI  25
LAMONI         CLEAR     36  29  75 SW8       30.11F WCI  30
6HR MIN TEMP:  30; 6HR MAX TEMP:  41;

RED OAK *      CLEAR     39  32  75 S8        30.06F WCI  34
SHENANDOAH *   CLEAR     39  34  81 S12       30.07F WCI  32
$$

IAZ047>049-059>061-072>074-084-070100-
   CENTRAL IOWA

CITY           SKY/WX    TMP DP  RH WIND       PRES   REMARKS
AMES           PTCLDY    33  29  85 S8        30.05F WCI  26
6HR MIN TEMP:  29; 6HR MAX TEMP:  34;

ANKENY *       CLEAR     34  32  93 S8        30.07F WCI  27
BOONE *        CLEAR     36  30  80 S13       30.01F WCI  27
CHARITON *     CLEAR     32  30  93 S8        30.11F WCI  25
DES MOINES     PTCLDY    35  29  78 S12       30.08F WCI  27
6HR MIN TEMP:  31; 6HR MAX TEMP:  38;

GRINNELL*      PTCLDY    32  30  93 S8        30.09F WCI  25
KNOXVILLE *    PTCLDY    34  30  86 S9        30.09F WCI  26
MARSHALLTOWN   PTCLDY    31  27  85 S10       30.06F WCI  22
6HR MIN TEMP:  29; 6HR MAX TEMP:  32;

NEWTON *       CLEAR     32  32 100 S8        30.08F WCI  25
PELLA *        CLEAR     34  30  85 S9        30.12F WCI  26
$$

IAZ004>006-015-016-023>025-035-036-070100-
   NORTH CENTRAL IOWA

CITY           SKY/WX    TMP DP  RH WIND       PRES   REMARKS
ALGONA *       CLOUDY    32  30  93 S21       29.93F WCI  20
CLARION *      CLEAR     30  28  93 S15       29.98F WCI  19
ESTHERVILLE    CLOUDY    33  27  78 S21       29.89F WCI  21
6HR MIN TEMP:  28; 6HR MAX TEMP:  34;

FORT DODGE *   CLOUDY    34  27  75 S18       29.98F WCI  23
MASON CITY     CLOUDY    28  26  92 S14       29.99F WCI  17
6HR MIN TEMP:  28; 6HR MAX TEMP:  29;

FOREST CITY *  MOCLDY    32  30  93 S18       29.95F WCI  20
WEBSTER CITY * PTCLDY    34  30  86 S20       29.97F WCI  22
IOWA FALLS *   MOCLDY    32  28  86 S15       30.02F WCI  22
$$

IAZ007>011-017>019-026>030-037>042-050>054-066-070100-
   NORTHEAST IOWA

CITY           SKY/WX    TMP DP  RH WIND       PRES   REMARKS
CEDAR RAPIDS   CLEAR     31  31 100 W3        30.10F FOG
6HR MIN TEMP:  31; 6HR MAX TEMP:  39;

CHARLES CITY * CLOUDY    28  28 100 S17       30.02F FOG     WCI  16
CLINTON *      CLEAR     30  28  92 NE5       30.14F WCI  25
DECORAH *      CLOUDY    28  28 100 S9G16     30.02F WCI  20
DUBUQUE        CLEAR     27  24  89 S6        30.10F WCI  20
6HR MIN TEMP:  26; 6HR MAX TEMP:  31;

MONTICELLO *   CLEAR     30  28  93 SE3       30.11F
OELWEIN *      CLOUDY    28  30 100 S13       30.06F FOG     WCI  18
WATERLOO       PTCLDY    29  26  89 S14       30.06F WCI  18
6HR MIN TEMP:  29; 6HR MAX TEMP:  31;

$$

IAZ064-065-067-068-078-070100-
   EAST CENTRAL IOWA

CITY           SKY/WX    TMP DP  RH WIND       PRES   REMARKS
DAVENPORT      PTCLDY    36  29  75 CALM      30.13F
6HR MIN TEMP:  34; 6HR MAX TEMP:  42;

IOWA CITY      CLEAR     34  29  82 SW5       30.14F WCI  30
6HR MIN TEMP:  34; 6HR MAX TEMP:  42;

MT. PLEASANT * CLEAR     39  31  73 SW7       30.14S WCI  34
MUSCATINE *    CLEAR     39  30  70 SW3       30.14F
QUAD CITIES    PTCLDY    35  28  75 S3        30.13F
6HR MIN TEMP:  35; 6HR MAX TEMP:  45;

$$

IAZ062-063-075>077-085>089-095>099-070100-
   SOUTHEAST IOWA

CITY           SKY/WX    TMP DP  RH WIND       PRES   REMARKS
BURLINGTON     CLEAR     40  29  64 CALM      30.13F
6HR MIN TEMP:  40; 6HR MAX TEMP:  46;

FAIRFIELD *    CLEAR     39  28  65 SW3       30.13S
FORT MADISON * CLEAR     43  30  61 SW5       30.15S
KEOKUK *       CLEAR     43  30  61 SW8       30.14S
OSKALOOSA *      N/A     33  31  92 W5        30.12F WCI  28
CENTERVILLE *    N/A    N/A N/A N/A MISG        N/A
OTTUMWA        CLEAR     36  30  79 SW7       30.12F WCI  30
6HR MIN TEMP:  36; 6HR MAX TEMP:  43;

WASHINGTON *   CLEAR     37  32  81 W7        30.14F WCI  32
$$

ABBREVIATIONS USED IN REMARKS
   TC - TEMPERATURES IN CELSIUS
  WCI - WIND CHILL INDEX
   HX - HEAT INDEX
  VSB - VISIBILITY
$$




USA.gov is the U.S. government's official web portal to all federal, state and local government web resources and services.